Flag for Germany Weather past 2 weeks in Ibbenbüren, North Rhine-Westphalia, Germany

Now
46 °F

Passing clouds.


Feels Like: 38 °F
Forecast: 48 / 51 °F
Wind: 23 mph from Southwest

Location: Muenster / Osnabrueck

Current Time: Dec 22, 2014 at 2:40:19 AM

Latest Report: Dec 22, 2014 at 2:20 AM


Visibility: N/A

Pressure: 30.04 "Hg

Humidity: 93%

Dew point: 45 °F

Location of IbbenbürenLocation

Historic Weather in Ibbenbüren — Graph

°F

Ibbenbüren temperature yesterday

Maximum temperature yesterday: 48 °F (at 9:50 PM)
Minimum temperature yesterday: 39 °F (at 12:20 AM)
Average temperature yesterday: 43 °F

Past Weeks' High & Low Weather Summary

 TemperatureHumidityPressure
High55 °F (Dec 18, 6:20 PM)100% (Dec 7, 1:20 AM)30.36 "Hg (Dec 7, 1:20 AM)
Low34 °F (Dec 14, 1:20 AM)70% (Dec 10, 4:50 AM)29.33 "Hg (Dec 12, 12:50 PM)
Average42 °F89%29.90 "Hg
* Reported Dec 7 1:20 AM — Dec 22 1:20 AM, Ibbenbüren, Weather by CustomWeather, © 2014

Note: Actual official high and low records may vary slightly from our data, if they occured in-between our weather recording intervals... More about our weather records

Advertising

Ibbenbüren weather history for previous 24 hours

 ConditionsComfort  
Time TempWeatherWind HumidityBarometerVisibility
1:20 AM
Dec 22
46 °FLight rain. Partly cloudy.21 mph93%30.04 "HgN/A
12:50 AM48 °FPassing clouds.23 mph87%30.07 "HgN/A
12:20 AM48 °FPassing clouds.22 mph87%30.07 "HgN/A
11:50 PM
Dec 21
48 °FPassing clouds.24 mph87%30.07 "HgN/A
11:20 PM46 °FPartly cloudy.21 mph93%30.09 "HgN/A
10:20 PM48 °FPassing clouds.17 mph87%30.09 "HgN/A
9:50 PM48 °FPassing clouds.17 mph82%30.09 "HgN/A
9:20 PM46 °FPartly cloudy.16 mph87%30.12 "HgN/A
8:50 PM46 °FPartly cloudy.18 mph87%30.12 "HgN/A
8:20 PM46 °FPassing clouds.18 mph87%30.12 "HgN/A
7:50 PM46 °FPassing clouds.16 mph82%30.12 "HgN/A
7:20 PM46 °FPassing clouds.16 mph82%30.15 "HgN/A
6:50 PM46 °FPartly cloudy.20 mph82%30.15 "HgN/A
6:20 PM46 °FPassing clouds.18 mph82%30.15 "HgN/A
5:50 PM46 °FPartly cloudy.16 mph82%30.15 "HgN/A
5:20 PM45 °FPartly cloudy.17 mph87%30.18 "HgN/A
4:50 PM45 °FPassing clouds.16 mph87%30.18 "HgN/A
4:20 PM45 °FPartly cloudy.16 mph87%30.18 "HgN/A
3:50 PM45 °FPartly sunny.14 mph87%30.18 "HgN/A
3:20 PM45 °FPartly sunny.13 mph81%30.21 "HgN/A
2:50 PM45 °FPartly sunny.13 mph81%30.21 "HgN/A
2:20 PM45 °FPartly sunny.14 mph81%30.24 "HgN/A
1:50 PM43 °FBroken clouds.13 mph87%30.24 "HgN/A
1:20 PM43 °FPartly sunny.12 mph87%30.24 "HgN/A
12:50 PM43 °FPartly sunny.13 mph87%30.27 "HgN/A
12:20 PM43 °FPartly sunny.12 mph87%30.27 "Hg5 mi
11:50 AM43 °FPartly sunny.14 mph93%30.30 "Hg4 mi
11:20 AM43 °FPartly sunny.15 mph93%30.30 "Hg4 mi
10:50 AM43 °FPartly sunny.10 mph93%30.30 "Hg4 mi
10:20 AM43 °FPartly sunny.12 mph93%30.30 "Hg4 mi
9:50 AM41 °FPartly sunny.8 mph93%30.30 "Hg4 mi
9:20 AM41 °FPartly sunny.10 mph93%30.33 "Hg4 mi
8:50 AM41 °FPartly sunny.9 mph93%30.33 "HgN/A
8:20 AM39 °FPartly cloudy.8 mph100%30.33 "HgN/A
7:50 AM39 °FPartly cloudy.9 mph100%30.33 "HgN/A
7:20 AM41 °FPartly cloudy.8 mph93%30.33 "HgN/A
6:50 AM41 °FPassing clouds.9 mph87%30.33 "HgN/A
6:20 AM41 °FPassing clouds.9 mph87%30.33 "HgN/A
5:50 AM41 °FClear.8 mph87%30.33 "Hg10 mi
5:20 AM41 °FQuite cool.8 mph87%30.33 "HgN/A
4:50 AM39 °FPassing clouds.9 mph87%30.33 "HgN/A
4:20 AM41 °FClear.9 mph87%30.33 "Hg10 mi
3:50 AM39 °FClear.9 mph87%30.33 "Hg10 mi
3:20 AM39 °FPassing clouds.10 mph93%30.30 "HgN/A
2:50 AM39 °FPassing clouds.9 mph87%30.30 "HgN/A
2:20 AM39 °FPassing clouds.10 mph87%30.30 "HgN/A
Weather by CustomWeather, © 2014

See weather overviewHow to use our weather pages